Location: Kerguer�zec
(48.4509°N, 4.7600°W)
Time: 17:43:24
(UTC+00:00)

Cosmos 2360 - Pass Details

Date: 09 April 2020
Orbit: 847 x 855 km, 70.8° (Epoch: 28 May)

Event Time Altitude Azimuth Distance (km) Brightness Sun altitude
Rises 22:02:43 0° 331° (NNW) 3,422 8.7 -25.9°
Reaches altitude 10° 22:05:10 10° 332° (NNW) 2,484 7.6 -26.2°
Maximum altitude 22:10:54 86° 62° (ENE) 858 4.1 -26.8°
Enters shadow 22:11:11 81° 126° (SE) 866 4.0 -26.8°
